Regional Weather Roundup
Issued by NWS Albany, NY

Home | Current Version | Previous Version | Text Only | Print | Product List | Glossary On
Versions: 1 2 3 4 5 6 7 8 9 10 11 12 13 14 15 16 17 18 19 20 21 22 23 24 25 26 27 28 29 30 31 32 33 34 35 36 37 38 39 40 41 42 43 44 45 46 47 48 49 50
000
ASUS41 KALY 311110
RWRALY

NEW YORK STATE HOURLY WEATHER ROUNDUP
NATIONAL WEATHER SERVICE ALBANY NY
700 AM EDT TUE MAY 31 2016

NOTE: "FAIR" INDICATES FEW OR NO CLOUDS BELOW 12,000 FEET WITH NO
SIGNIFICANT WEATHER AND/OR NO OBSTRUCTIONS TO VISIBILITY.

NYZ032-033-038>043-046>054-057>066-NYZ062>081-082-084-311200-
EAST


CITY           SKY/WX    TMP DP  RH WIND       PRES   REMARKS
ALBANY         MOSUNNY   65  55  70 W7        29.96R
GLENS FALLS    SUNNY     65  54  67 SW6       29.94R
POUGHKEEPSIE   CLOUDY    68  63  84 CALM      29.95R
NEWBURGH       MOSUNNY   64  64 100 CALM      29.97R
MONTGOMERY     CLOUDY    66  63  90 CALM      29.96R
WHITE PLAINS   CLOUDY    70  68  94 NW5       29.96R
NEW YORK CITY  CLOUDY    73  68  83 NW7       29.94R
CENTRAL PARK   CLOUDY    72  67  84 CALM      29.97R
$$

NYZ005>009-017-018-044>046-055-056-311200-
CENTRAL


CITY           SKY/WX    TMP DP  RH WIND       PRES   REMARKS
FULTON         PTSUNNY   62  56  80 CALM      29.99R
SYRACUSE       MOSUNNY   62  56  80 CALM      29.98R
ROME           MOSUNNY   57  56  96 CALM      30.00R
ELMIRA         SUNNY     54  53  97 CALM      30.01R
BINGHAMTON     SUNNY     59  57  93 W5        30.01R
MONTICELLO     SUNNY     61  57  88 NW5       30.02R
$$

NYZ026>034-041>043-087-311200-
NORTH


CITY           SKY/WX    TMP DP  RH WIND       PRES   REMARKS
WATERTOWN      SUNNY     62  53  72 SW7       29.96R
FORT DRUM      NOT AVBL
MASSENA        SUNNY     62  52  69 SW12      29.90R
SARANAC LAKE   SUNNY     58  50  75 SW8       29.93R
PLATTSBURGH    SUNNY     65  52  62 W5        29.88S
$$

NYZ001>004-010>016-019>021-085-311200-
WEST


CITY           SKY/WX    TMP DP  RH WIND       PRES   REMARKS
NIAGARA FALLS  PTSUNNY   63  57  81 CALM      30.01R
BUFFALO        MOSUNNY   61  56  83 S3        30.01R
DUNKIRK        SUNNY     59  55  87 SE3       30.01R
JAMESTOWN      SUNNY     57  52  82 N3        30.05R
WELLSVILLE     SUNNY     57  54  89 CALM      30.06R
ROCHESTER      PTSUNNY   61  58  90 SW3       30.00R
PENN YAN       MOSUNNY   61  56  83 CALM      30.02R
$$

             KEY
       WCI = WIND CHILL INDEX
       VSB = VISIBILITY
       HX  = HEAT INDEX
$$



USA.gov is the U.S. government's official web portal to all federal, state and local government web resources and services.